Regional Weather Roundup
Issued by NWS

Home | Current Version | Previous Version | Graphics & Text | Print | Product List | Glossary Off
Versions: 1 2 3 4 5 6 7 8 9 10 11 12 13 14 15 16 17 18 19 20 21 22 23 24 25 26 27 28 29 30 31 32 33 34 35 36 37 38 39 40 41 42 43 44 45 46 47 48 49 50

000
ASUS43 KTOP 181359
RWRKS

WEATHER ROUNDUP FOR KANSAS
NATIONAL WEATHER SERVICE GOODLAND KS
800 AM CST THU DEC 18 2014

NOTE:  "FAIR" INDICATES FEW OR NO CLOUDS BELOW 12,000 FEET WITH NO
SIGNIFICANT WEATHER AND/OR OBSTRUCTIONS TO VISIBILITY.

KSZ001>006-013>018-027>032-041>047-181500-
NORTHWEST KANSAS

CITY           SKY/WX    TMP DP  RH WIND       PRES   REMARKS
GOODLAND       FOG       20  18  92 W5        30.07R VSB 1/2
HAYS           CLOUDY    27  18  69 NE3       30.16R
HILL CITY      CLOUDY    26  24  92 CALM      30.16R
RUSSELL        CLOUDY    25  25 100 N6        30.16R FOG
$$

KSZ061>065-074>080-084>089-181500-
SOUTHWEST KANSAS

CITY           SKY/WX    TMP DP  RH WIND       PRES   REMARKS
DODGE CITY     FOG       28  27  96 NE3       30.12R VSB 1/2
ELKHART          N/A     30  22  72 NW9         N/A
GARDEN CITY    FOG       28  28 100 NE5       30.11R VSB 1/4
GREAT BEND     CLOUDY    27  21  80 NE3       30.16R
LIBERAL        CLOUDY    32  28  86 CALM      30.12R
$$

KSZ066>073-081>083-090>101-181500-
SOUTHEAST KANSAS

CITY           SKY/WX    TMP DP  RH WIND       PRES   REMARKS
CHANUTE        CLOUDY    31  30  96 E3        30.19R
COFFEYVILLE    CLOUDY    34  33  96 E7        30.19R FOG
HUTCHINSON     CLOUDY    30  27  88 NE5       30.16S FOG
MEDICINE LODGE   N/A     31  31 100 NE5       30.15R
NEWTON         CLOUDY    28  25  86 N3        30.18R
PARSONS        CLOUDY    33  33 100 E5        30.19S FOG
WICHITA INTL   FOG       32  30  92 NE3       30.17R VSB 1/4
WICHITA JABRA  FOG       30  29  96 N3        30.16S VSB 1/2
WICHITA MCCONL FRZ DRZL  32  30  93 N5        30.17R VSB 1/2
WINFIELD       FOG       32  32 100 E3        30.18R VSB 1
$$

KSZ007>012-019>026-033>040-048>060-102>105-181500-
NORTHEAST KANSAS

CITY           SKY/WX    TMP DP  RH WIND       PRES   REMARKS
CONCORDIA      LGT SNOW  25  24  96 E3        30.19S FOG
EMPORIA        LGT SNOW  28  27  96 NE3       30.18S FOG
LAWRENCE       CLOUDY    29  27  92 E3        30.22S FOG
MANHATTAN      CLOUDY    28  26  92 NE5       30.21S FOG
OLATHE IND     LGT SNOW  29  27  92 E6        30.21R FOG
OLATHE EXE     LGT SNOW  29  28  96 E6        30.19S FOG
SALINA         CLOUDY    28  26  92 NE5       30.20R FOG
TOPEKA BILLARD LGT SNOW  30  28  92 E3        30.22S FOG
TOPEKA FORBES  LGT SNOW  30  27  88 CALM      30.20S FOG
$$



USA.gov is the U.S. government's official web portal to all federal, state and local government web resources and services.